{"data":{"norad_id":67855,"epoch":"2026-09-19T19:10:02.485632Z","epoch_age_seconds":127070,"freshness":"FRESH","line1":"1 67855U 26034F   26262.79863988  .00016460  00000+0  54062-3 0  9998","line2":"2 67855  53.1604  21.2772 0001142  78.9856 281.1274 15.31722239 33774","mean_motion":15.31722239,"eccentricity":0.0001142,"inclination_deg":53.1604,"raan_deg":21.2772,"arg_perigee_deg":78.9856,"mean_anomaly_deg":281.1274,"bstar":0.00054062,"rev_number":3377,"period_min":94.011822988228,"perigee_km":469.89156854371,"apogee_km":471.45583690822,"semimajor_km":6848.810702726,"source":"CELESTRAK","updated_at":"2026-09-20T09:00:43.674290Z"}}